Starlink 35186

operational
NORAD ID: 65611 Int'l Des: 2025-207 Owner: SPXS Country: US Constellation: starlink
NOTLE

About Starlink 35186

Description loading...

Live Position

Loading 3D Globe...

Upcoming Passes

Altitude History

Altitude vs Time

uPlot chart will show altitude changes over time

Two-Line Element Set

1 65611U 25207V 25354.58336806 -.01595966 00000-0 -94305-1 0 9998
2 65611 97.6032 60.5913 0001914 89.3644 213.0487 15.14972204 5736
Epoch: Dec 20, 2025 • Age: 5 hours

Current Status

Altitude 548.8 km
Velocity 7.59 km/s
Sub-Earth Point -63.98°S, 142.15°W
Launch Date Sep 13, 2025
Age 0.2 years
Type internet

Technical Details

Classification Payload
Mass 575.00 kg
Dry Mass 530.00 kg
Total Mass 575.00 kg
Length 0.30 m
Diameter 4.10 m
Span 29.00 m
Shape Box + pan
Manufacturer SPXS
Bus Type Starlink V2MO
Phase Status In Orbit
Owner/State SPXS/US

Large Constellations

Loading constellations...